Oxford, NC

4:42 PM EST on November 14, 2019 (GMT -0500)
Henderson-Oxford

Weather History for KHNZ - September, 2019

Change the Weather History Date:

Sunday, September 8, 2019

  Actual Average (KTDF) Record (KTDF)
Temperature  
Mean Temperature 73 °F -  
Max Temperature 87 °F 83 °F 98 °F (1990)
Min Temperature 59 °F 58 °F 42 °F (1988)
Cooling Degree Days 8    
Growing Degree Days 23 (Base 50)    
Moisture  
Dew Point 65 °F    
Average Humidity 77    
Maximum Humidity 97    
Minimum Humidity 52    
Precipitation  
Precipitation 0.00 in - - ()
Sea Level Pressure  
Sea Level Pressure 30.03 in    
Wind  
Wind Speed 1 mph (ENE)    
Max Wind Speed 8 mph    
Max Gust Speed -    
Visibility 10 miles    
Events      
Averages and records for this station are not official NWS values.
T = Trace of Precipitation, MM = Missing Value Source: NWS Daily Summary

Daily Weather History Graph

Daily Weather History Graph

Search for Another Location

Airport or City:

Astronomy

Sep. 08, 2019 Rise Set
Actual Time 6:50 AM EDT 7:32 PM EDT
Civil Twilight 6:24 AM EDT 7:58 PM EDT
Nautical Twilight 5:54 AM EDT 8:28 PM EDT
Astronomical Twilight 5:22 AM EDT 9:00 PM EDT
Moon 4:31 PM EDT (9/8) 1:37 AM EDT (9/8)
Length of Visible Light 13h 33m
Length of Day
12h 41m
Waxing Gibbous, 75% of the Moon is Illuminated
Sep 8
Waxing Gibbous
Sep 14
Full
Sep 21
Last Quarter
Sep 28
New
Oct 5
First Quarter

Hourly Weather History & Observations

Time (EDT) Temp. Heat Index Dew Point Humidity Pressure Visibility Wind Dir Wind Speed Gust Speed Precip Events Conditions
12:15 AM 64.2 °F - 60.1 °F 86% 29.98 in 10.0 mi Calm Calm - N/A   Clear
12:35 AM 63.0 °F - 59.7 °F 89% 29.99 in 10.0 mi Calm Calm - N/A   Clear
12:55 AM 64.0 °F - 59.9 °F 86% 29.99 in 10.0 mi Calm Calm - N/A   Clear
1:15 AM 62.6 °F - 59.5 °F 90% 29.99 in 10.0 mi Calm Calm - N/A   Scattered Clouds
1:35 AM 63.3 °F - 59.9 °F 89% 30.00 in 10.0 mi Calm Calm - N/A   Scattered Clouds
1:55 AM 62.6 °F - 59.7 °F 90% 29.99 in 10.0 mi Calm Calm - N/A   Clear
2:15 AM 61.9 °F - 59.2 °F 91% 30.00 in 10.0 mi Calm Calm - N/A   Clear
2:35 AM 63.9 °F - 58.3 °F 82% 29.99 in 10.0 mi Calm Calm - N/A   Clear
3:15 AM 61.5 °F - 58.5 °F 90% 29.99 in 10.0 mi Calm Calm - N/A   Clear
3:35 AM 61.3 °F - 57.9 °F 89% 30.00 in 10.0 mi Calm Calm - N/A   Clear
3:55 AM 60.1 °F - 57.7 °F 92% 30.00 in 10.0 mi Calm Calm - N/A   Clear
4:15 AM 59.7 °F - 57.6 °F 93% 29.99 in 10.0 mi Calm Calm - N/A   Clear
4:35 AM 60.1 °F - 57.4 °F 91% 30.00 in 10.0 mi Calm Calm - N/A   Clear
4:55 AM 61.0 °F - 58.3 °F 91% 30.00 in 10.0 mi Calm Calm - N/A   Clear
5:15 AM 59.7 °F - 57.6 °F 93% 30.00 in 10.0 mi Calm Calm - N/A   Scattered Clouds
5:35 AM 61.7 °F - 59.0 °F 91% 30.00 in 10.0 mi Calm Calm - N/A   Clear
5:55 AM 61.0 °F - 59.0 °F 93% 30.01 in 10.0 mi Calm Calm - N/A   Clear
6:15 AM 60.8 °F - 59.2 °F 94% 30.01 in 10.0 mi Calm Calm - N/A   Clear
6:35 AM 59.9 °F - 58.5 °F 95% 30.01 in 7.0 mi Calm Calm - N/A   Clear
6:55 AM 61.0 °F - 60.1 °F 97% 30.02 in 7.0 mi Calm Calm - N/A   Clear
7:15 AM 61.7 °F - 60.6 °F 96% 30.03 in 7.0 mi Calm Calm - N/A   Clear
7:35 AM 62.6 °F - 61.3 °F 96% 30.03 in 7.0 mi Calm Calm - N/A   Clear
7:55 AM 62.1 °F - 60.8 °F 96% 30.04 in 5.0 mi Calm Calm - N/A   Clear
8:15 AM 64.4 °F - 62.2 °F 93% 30.04 in 7.0 mi Calm Calm - N/A   Clear
8:35 AM 66.4 °F - 63.7 °F 91% 30.04 in 10.0 mi Calm Calm - N/A   Clear
8:55 AM 68.0 °F - 64.2 °F 88% 30.05 in 10.0 mi Calm Calm - N/A   Clear
9:15 AM 69.3 °F - 64.4 °F 84% 30.06 in 10.0 mi Calm Calm - N/A   Clear
9:35 AM 70.9 °F - 64.9 °F 81% 30.06 in 10.0 mi NE 6.9 mph - N/A   Clear
9:55 AM 73.8 °F - 66.0 °F 77% 30.06 in 10.0 mi NNE 5.8 mph - N/A   Clear
10:15 AM 75.0 °F - 66.0 °F 73% 30.07 in 10.0 mi North 6.9 mph - N/A   Clear
10:35 AM 75.4 °F - 64.8 °F 69% 30.07 in 10.0 mi NE 4.6 mph - N/A   Clear
10:55 AM 78.3 °F - 65.5 °F 65% 30.07 in 10.0 mi ENE 5.8 mph - N/A   Clear
11:15 AM 78.8 °F - 62.8 °F 58% 30.06 in 10.0 mi ENE 8.1 mph - N/A   Clear
11:35 AM 80.2 °F 81.5 °F 63.0 °F 55% 30.06 in 10.0 mi NNE 8.1 mph - N/A   Clear
11:55 AM 80.6 °F 82.3 °F 64.8 °F 58% 30.05 in 10.0 mi NNE 6.9 mph - N/A   Clear
12:15 PM 80.8 °F 82.5 °F 64.6 °F 58% 30.05 in 10.0 mi ENE 3.5 mph - N/A   Clear
12:35 PM 82.2 °F 83.8 °F 64.4 °F 55% 30.04 in 10.0 mi Calm Calm - N/A   Clear
12:55 PM 84.0 °F 86.0 °F 65.5 °F 54% 30.03 in 10.0 mi NE 5.8 mph - N/A   Clear
1:15 PM 84.4 °F 86.3 °F 65.7 °F 53% 30.03 in 10.0 mi ESE 5.8 mph - N/A   Clear
1:35 PM 84.4 °F 86.6 °F 65.8 °F 54% 30.03 in 10.0 mi Calm Calm - N/A   Scattered Clouds
1:55 PM 84.6 °F 86.3 °F 65.3 °F 52% 30.02 in 10.0 mi Calm Calm - N/A   Scattered Clouds
2:15 PM 83.8 °F 86.0 °F 66.0 °F 55% 30.02 in 10.0 mi NNE 4.6 mph - N/A   Mostly Cloudy
2:35 PM 83.1 °F 85.4 °F 66.2 °F 57% 30.02 in 10.0 mi NNE 5.8 mph - N/A   Mostly Cloudy
2:55 PM 84.6 °F 86.8 °F 66.2 °F 54% 30.02 in 10.0 mi Calm Calm - N/A   Scattered Clouds
3:15 PM 84.0 °F 86.3 °F 66.4 °F 55% 30.02 in 10.0 mi ENE 4.6 mph - N/A   Clear
3:35 PM 85.6 °F 88.8 °F 67.6 °F 55% 30.01 in 10.0 mi East 6.9 mph - N/A   Clear
3:55 PM 86.5 °F 90.0 °F 68.4 °F 54% 30.01 in 10.0 mi NE 6.9 mph - N/A   Clear
4:15 PM 86.0 °F 89.4 °F 68.0 °F 55% 30.00 in 10.0 mi Calm Calm - N/A   Clear
4:35 PM 86.4 °F 90.0 °F 68.4 °F 55% 30.01 in 10.0 mi ESE 3.5 mph - N/A   Scattered Clouds
4:55 PM 87.1 °F 90.9 °F 68.4 °F 54% 29.99 in 10.0 mi East 4.6 mph - N/A   Scattered Clouds
5:15 PM 86.5 °F 90.0 °F 68.0 °F 54% 29.99 in 10.0 mi Calm Calm - N/A   Scattered Clouds
5:35 PM 85.6 °F 88.8 °F 68.0 °F 55% 29.99 in 10.0 mi South 5.8 mph - N/A   Scattered Clouds
5:55 PM 85.1 °F 88.8 °F 68.9 °F 58% 29.99 in 10.0 mi SSE 4.6 mph - N/A   Clear
6:15 PM 84.7 °F 88.5 °F 69.1 °F 59% 29.99 in 10.0 mi Calm Calm - N/A   Scattered Clouds
6:35 PM 83.5 °F 86.9 °F 68.9 °F 61% 30.01 in 10.0 mi Calm Calm - N/A   Scattered Clouds
6:55 PM 82.2 °F 85.5 °F 68.9 °F 64% 30.02 in 10.0 mi Calm Calm - N/A   Scattered Clouds
7:15 PM 80.8 °F 83.9 °F 69.4 °F 68% 30.03 in 10.0 mi Calm Calm - N/A   Scattered Clouds
7:55 PM 77.2 °F - 69.6 °F 77% 30.04 in 10.0 mi Calm Calm - N/A   Clear
8:15 PM 77.5 °F - 69.8 °F 77% 30.04 in 10.0 mi Calm Calm - N/A   Clear
8:35 PM 77.5 °F - 69.8 °F 77% 30.04 in 10.0 mi SE 3.5 mph - N/A   Clear
8:55 PM 74.8 °F - 70.3 °F 86% 30.05 in 10.0 mi Calm Calm - N/A   Scattered Clouds
9:15 PM 73.9 °F - 69.8 °F 87% 30.05 in 10.0 mi Calm Calm - N/A   Mostly Cloudy
9:35 PM 73.8 °F - 70.3 °F 89% 30.05 in 10.0 mi Calm Calm - N/A   Scattered Clouds
9:55 PM 72.5 °F - 69.8 °F 91% 30.06 in 10.0 mi Calm Calm - N/A   Clear
10:15 PM 72.7 °F - 70.0 °F 91% 30.07 in 10.0 mi Calm Calm - N/A   Clear
10:35 PM 71.6 °F - 69.8 °F 94% 30.07 in 10.0 mi Calm Calm - N/A   Clear
10:55 PM 72.1 °F - 70.3 °F 94% 30.08 in 10.0 mi Calm Calm - N/A   Scattered Clouds
11:15 PM 71.8 °F - 70.0 °F 94% 30.08 in 10.0 mi Calm Calm - N/A   Scattered Clouds
11:35 PM 72.9 °F - 70.2 °F 91% 30.09 in 10.0 mi East 8.1 mph - N/A   Scattered Clouds
11:55 PM 72.9 °F - 70.2 °F 91% 30.09 in 10.0 mi East 6.9 mph - N/A   Scattered Clouds